owner,sensor,date,latitude,longitude,vertical_datum,sea_water_practical_salinity,qcFlag 
SCCF RECON,ioos:station:SCCF:11:1,2011-07-01T00:00:00Z,26.4679,-82.0631,1.29,36.15,1111122 
SCCF RECON,ioos:station:SCCF:11:1,2011-07-01T01:00:00Z,26.4679,-82.0631,1.3,35.89,1111122 
SCCF RECON,ioos:station:SCCF:11:1,2011-07-01T02:00:00Z,26.4679,-82.0631,1.44,36.2,1111122 
SCCF RECON,ioos:station:SCCF:11:1,2011-07-01T03:00:00Z,26.4679,-82.0631,1.57,36.3,1111122 
SCCF RECON,ioos:station:SCCF:11:1,2011-07-01T04:00:00Z,26.4679,-82.0631,1.696,36.26,1111122 
SCCF RECON,ioos:station:SCCF:11:1,2011-07-01T05:00:00Z,26.4679,-82.0631,1.83,36.2,1111122 
SCCF RECON,ioos:station:SCCF:11:1,2011-07-01T06:00:00Z,26.4679,-82.0631,1.9,36.18,1111122 
SCCF RECON,ioos:station:SCCF:11:1,2011-07-01T07:00:00Z,26.4679,-82.0631,1.89,36.25,1111122 
SCCF RECON,ioos:station:SCCF:11:1,2011-07-01T08:00:00Z,26.4679,-82.0631,1.84,36.25,1111122 
SCCF RECON,ioos:station:SCCF:11:1,2011-07-01T09:00:00Z,26.4679,-82.0631,1.78,36.3,1111122 
SCCF RECON,ioos:station:SCCF:11:1,2011-07-01T10:00:00Z,26.4679,-82.0631,1.75,36.32,1111122 
SCCF RECON,ioos:station:SCCF:11:1,2011-07-01T11:00:00Z,26.4679,-82.0631,1.74,36.29,1111122 
SCCF RECON,ioos:station:SCCF:11:1,2011-07-01T12:00:00Z,26.4679,-82.0631,1.75,36.34,1111122 
SCCF RECON,ioos:station:SCCF:11:1,2011-07-01T13:00:00Z,26.4679,-82.0631,1.8,36.34,1111122 
SCCF RECON,ioos:station:SCCF:11:1,2011-07-01T14:00:00Z,26.4679,-82.0631,1.92,36.3,1111122 
SCCF RECON,ioos:station:SCCF:11:1,2011-07-01T15:00:00Z,26.4679,-82.0631,2.065,35.84,1111122 
SCCF RECON,ioos:station:SCCF:11:1,2011-07-01T16:00:00Z,26.4679,-82.0631,2.156,35.83,1111122 
SCCF RECON,ioos:station:SCCF:11:1,2011-07-01T17:00:00Z,26.4679,-82.0631,2.2,35.98,1111122 
SCCF RECON,ioos:station:SCCF:11:1,2011-07-01T18:00:00Z,26.4679,-82.0631,2.202,35.91,1111122 
SCCF RECON,ioos:station:SCCF:11:1,2011-07-01T19:00:00Z,26.4679,-82.0631,2.11,35.94,1111122 
SCCF RECON,ioos:station:SCCF:11:1,2011-07-01T20:00:00Z,26.4679,-82.0631,1.929,35.99,1111122 
SCCF RECON,ioos:station:SCCF:11:1,2011-07-01T21:00:00Z,26.4679,-82.0631,1.738,36.15,1111122 
SCCF RECON,ioos:station:SCCF:11:1,2011-07-01T22:00:00Z,26.4679,-82.0631,1.608,36.23,1111122 
SCCF RECON,ioos:station:SCCF:11:1,2011-07-01T23:00:00Z,26.4679,-82.0631,1.469,36.32,1111122 
SCCF RECON,ioos:station:SCCF:11:1,2011-07-02T00:00:00Z,26.4679,-82.0631,1.359,36.36,1111122 
SCCF RECON,ioos:station:SCCF:11:1,2011-07-02T01:00:00Z,26.4679,-82.0631,1.3,36.43,1111122 
SCCF RECON,ioos:station:SCCF:11:1,2011-07-02T02:00:00Z,26.4679,-82.0631,1.31,36.36,1111122 
SCCF RECON,ioos:station:SCCF:11:1,2011-07-02T03:00:00Z,26.4679,-82.0631,1.474,36.23,1111122 
SCCF RECON,ioos:station:SCCF:11:1,2011-07-02T04:00:00Z,26.4679,-82.0631,1.65,36.26,1111122 
SCCF RECON,ioos:station:SCCF:11:1,2011-07-02T05:00:00Z,26.4679,-82.0631,1.8,36.22,1111122 
SCCF RECON,ioos:station:SCCF:11:1,2011-07-02T06:00:00Z,26.4679,-82.0631,1.9,36.19,1111122 
SCCF RECON,ioos:station:SCCF:11:1,2011-07-02T07:00:00Z,26.4679,-82.0631,1.938,36.19,1111122 
SCCF RECON,ioos:station:SCCF:11:1,2011-07-02T08:00:00Z,26.4679,-82.0631,1.9,36.21,1111122 
SCCF RECON,ioos:station:SCCF:11:1,2011-07-02T09:00:00Z,26.4679,-82.0631,1.81,36.22,1111122 
SCCF RECON,ioos:station:SCCF:11:1,2011-07-02T10:00:00Z,26.4679,-82.0631,1.79,36.23,1111122 
SCCF RECON,ioos:station:SCCF:11:1,2011-07-02T11:00:00Z,26.4679,-82.0631,1.8,36.26,1111122 
SCCF RECON,ioos:station:SCCF:11:1,2011-07-02T12:00:00Z,26.4679,-82.0631,1.75,36.18,1111122 
SCCF RECON,ioos:station:SCCF:11:1,2011-07-02T13:00:00Z,26.4679,-82.0631,1.721,36.21,1111122 
SCCF RECON,ioos:station:SCCF:11:1,2011-07-02T14:00:00Z,26.4679,-82.0631,1.81,36.17,1111122 
SCCF RECON,ioos:station:SCCF:11:1,2011-07-02T15:00:00Z,26.4679,-82.0631,1.954,36.12,1111122 
SCCF RECON,ioos:station:SCCF:11:1,2011-07-02T16:00:00Z,26.4679,-82.0631,2.052,36.09,1111122 
SCCF RECON,ioos:station:SCCF:11:1,2011-07-02T17:00:00Z,26.4679,-82.0631,2.127,36.09,1111122 
SCCF RECON,ioos:station:SCCF:11:1,2011-07-02T18:00:00Z,26.4679,-82.0631,2.16,36.07,1111122 
SCCF RECON,ioos:station:SCCF:11:1,2011-07-02T19:00:00Z,26.4679,-82.0631,2.13,36.11,1111122 
SCCF RECON,ioos:station:SCCF:11:1,2011-07-02T20:00:00Z,26.4679,-82.0631,2.008,36.07,1111122 
SCCF RECON,ioos:station:SCCF:11:1,2011-07-02T21:00:00Z,26.4679,-82.0631,1.84,36.12,1111122 
SCCF RECON,ioos:station:SCCF:11:1,2011-07-02T22:00:00Z,26.4679,-82.0631,1.667,36.14,1111122 
SCCF RECON,ioos:station:SCCF:11:1,2011-07-02T23:00:00Z,26.4679,-82.0631,1.51,36.24,1111122 
SCCF RECON,ioos:station:SCCF:11:1,2011-07-03T00:00:00Z,26.4679,-82.0631,1.381,36.29,1111122 
SCCF RECON,ioos:station:SCCF:11:1,2011-07-03T01:00:00Z,26.4679,-82.0631,1.268,36.35,1111122 
SCCF RECON,ioos:station:SCCF:11:1,2011-07-03T02:00:00Z,26.4679,-82.0631,1.27,36.34,1111122 
SCCF RECON,ioos:station:SCCF:11:1,2011-07-03T03:00:00Z,26.4679,-82.0631,1.391,36.25,1111122 
SCCF RECON,ioos:station:SCCF:11:1,2011-07-03T04:00:00Z,26.4679,-82.0631,1.56,36.2,1111122 
SCCF RECON,ioos:station:SCCF:11:1,2011-07-03T05:00:00Z,26.4679,-82.0631,1.713,36.16,1111122 
SCCF RECON,ioos:station:SCCF:11:1,2011-07-03T06:00:00Z,26.4679,-82.0631,1.84,36.08,1111122 
SCCF RECON,ioos:station:SCCF:11:1,2011-07-03T07:00:00Z,26.4679,-82.0631,1.89,35.89,1111122 
SCCF RECON,ioos:station:SCCF:11:1,2011-07-03T08:00:00Z,26.4679,-82.0631,1.93,35.9,1111122 
SCCF RECON,ioos:station:SCCF:11:1,2011-07-03T09:00:00Z,26.4679,-82.0631,1.93,36.02,1111122 
SCCF RECON,ioos:station:SCCF:11:1,2011-07-03T10:00:00Z,26.4679,-82.0631,1.833,35.95,1111122 
SCCF RECON,ioos:station:SCCF:11:1,2011-07-03T11:00:00Z,26.4679,-82.0631,1.76,35.98,1111122 
SCCF RECON,ioos:station:SCCF:11:1,2011-07-03T12:00:00Z,26.4679,-82.0631,1.727,36.05,1111122 
SCCF RECON,ioos:station:SCCF:11:1,2011-07-03T13:00:00Z,26.4679,-82.0631,1.69,36.06,1111122 
SCCF RECON,ioos:station:SCCF:11:1,2011-07-03T14:00:00Z,26.4679,-82.0631,1.73,36.05,1111122 
SCCF RECON,ioos:station:SCCF:11:1,2011-07-03T15:00:00Z,26.4679,-82.0631,1.86,36.05,1111122 
SCCF RECON,ioos:station:SCCF:11:1,2011-07-03T16:00:00Z,26.4679,-82.0631,1.994,35.99,1111122 
SCCF RECON,ioos:station:SCCF:11:1,2011-07-03T17:00:00Z,26.4679,-82.0631,2.101,36.03,1111122 
SCCF RECON,ioos:station:SCCF:11:1,2011-07-03T18:00:00Z,26.4679,-82.0631,2.181,36.02,1111122 
SCCF RECON,ioos:station:SCCF:11:1,2011-07-03T19:00:00Z,26.4679,-82.0631,2.22,36.13,1111122 
SCCF RECON,ioos:station:SCCF:11:1,2011-07-03T20:00:00Z,26.4679,-82.0631,2.15,35.85,1111122 
SCCF RECON,ioos:station:SCCF:11:1,2011-07-03T21:00:00Z,26.4679,-82.0631,1.99,35.99,1111122 
SCCF RECON,ioos:station:SCCF:11:1,2011-07-03T22:00:00Z,26.4679,-82.0631,1.839,35.93,1111122 
SCCF RECON,ioos:station:SCCF:11:1,2011-07-03T23:00:00Z,26.4679,-82.0631,1.68,35.35,1111122 
SCCF RECON,ioos:station:SCCF:11:1,2011-07-04T00:00:00Z,26.4679,-82.0631,1.544,35.4,1111122 
SCCF RECON,ioos:station:SCCF:11:1,2011-07-04T01:00:00Z,26.4679,-82.0631,1.372,35.21,1111122 
SCCF RECON,ioos:station:SCCF:11:1,2011-07-04T02:00:00Z,26.4679,-82.0631,1.32,34.4,1111122 
SCCF RECON,ioos:station:SCCF:11:1,2011-07-04T03:00:00Z,26.4679,-82.0631,1.337,34.95,1111122 
SCCF RECON,ioos:station:SCCF:11:1,2011-07-04T04:00:00Z,26.4679,-82.0631,1.47,35.05,1111122 
SCCF RECON,ioos:station:SCCF:11:1,2011-07-04T05:00:00Z,26.4679,-82.0631,1.651,35.13,1111122 
SCCF RECON,ioos:station:SCCF:11:1,2011-07-04T06:00:00Z,26.4679,-82.0631,1.81,35.2,1111122 
SCCF RECON,ioos:station:SCCF:11:1,2011-07-04T07:00:00Z,26.4679,-82.0631,1.9,35.32,1111122 
SCCF RECON,ioos:station:SCCF:11:1,2011-07-04T08:00:00Z,26.4679,-82.0631,1.97,35.4,1111122 
SCCF RECON,ioos:station:SCCF:11:1,2011-07-04T09:00:00Z,26.4679,-82.0631,1.99,35.47,1111122 
SCCF RECON,ioos:station:SCCF:11:1,2011-07-04T10:00:00Z,26.4679,-82.0631,1.93,35.44,1111122 
SCCF RECON,ioos:station:SCCF:11:1,2011-07-04T11:00:00Z,26.4679,-82.0631,1.816,35.36,1111122 
SCCF RECON,ioos:station:SCCF:11:1,2011-07-04T12:00:00Z,26.4679,-82.0631,1.753,35.3,1111122 
SCCF RECON,ioos:station:SCCF:11:1,2011-07-04T13:00:00Z,26.4679,-82.0631,1.703,35.18,1111122 
SCCF RECON,ioos:station:SCCF:11:1,2011-07-04T14:00:00Z,26.4679,-82.0631,1.68,35.17,1111122 
SCCF RECON,ioos:station:SCCF:11:1,2011-07-04T15:00:00Z,26.4679,-82.0631,1.754,35.3,1111122 
SCCF RECON,ioos:station:SCCF:11:1,2011-07-04T16:00:00Z,26.4679,-82.0631,1.889,35.29,1111122 
SCCF RECON,ioos:station:SCCF:11:1,2011-07-04T17:00:00Z,26.4679,-82.0631,2.01,35.1,1111122 
SCCF RECON,ioos:station:SCCF:11:1,2011-07-04T18:00:00Z,26.4679,-82.0631,2.1,35.22,1111122 
SCCF RECON,ioos:station:SCCF:11:1,2011-07-04T19:00:00Z,26.4679,-82.0631,2.137,35.39,1111122 
SCCF RECON,ioos:station:SCCF:11:1,2011-07-04T20:00:00Z,26.4679,-82.0631,2.12,35.27,1111122 
SCCF RECON,ioos:station:SCCF:11:1,2011-07-04T21:00:00Z,26.4679,-82.0631,2.05,35.29,1111122 
SCCF RECON,ioos:station:SCCF:11:1,2011-07-04T22:00:00Z,26.4679,-82.0631,1.97,35.29,1111122 
SCCF RECON,ioos:station:SCCF:11:1,2011-07-04T23:00:00Z,26.4679,-82.0631,1.78,35.27,1111122 
SCCF RECON,ioos:station:SCCF:11:1,2011-07-05T00:00:00Z,26.4679,-82.0631,1.631,35.31,1111122 
SCCF RECON,ioos:station:SCCF:11:1,2011-07-05T01:00:00Z,26.4679,-82.0631,1.498,35.42,1111122 
SCCF RECON,ioos:station:SCCF:11:1,2011-07-05T02:00:00Z,26.4679,-82.0631,1.391,35.48,1111122 
SCCF RECON,ioos:station:SCCF:11:1,2011-07-05T03:00:00Z,26.4679,-82.0631,1.351,35.43,1111122 
SCCF RECON,ioos:station:SCCF:11:1,2011-07-05T04:00:00Z,26.4679,-82.0631,1.435,35.39,1111122 
SCCF RECON,ioos:station:SCCF:11:1,2011-07-05T05:00:00Z,26.4679,-82.0631,1.6,35.38,1111122 
SCCF RECON,ioos:station:SCCF:11:1,2011-07-05T06:00:00Z,26.4679,-82.0631,1.75,35.37,1111122 
SCCF RECON,ioos:station:SCCF:11:1,2011-07-05T07:00:00Z,26.4679,-82.0631,1.86,35.35,1111122 
SCCF RECON,ioos:station:SCCF:11:1,2011-07-05T08:00:00Z,26.4679,-82.0631,1.95,35.35,1111122 
SCCF RECON,ioos:station:SCCF:11:1,2011-07-05T09:00:00Z,26.4679,-82.0631,2.006,35.31,1111122 
SCCF RECON,ioos:station:SCCF:11:1,2011-07-05T10:00:00Z,26.4679,-82.0631,1.971,35.32,1111122 
SCCF RECON,ioos:station:SCCF:11:1,2011-07-05T11:00:00Z,26.4679,-82.0631,1.859,35.34,1111122 
SCCF RECON,ioos:station:SCCF:11:1,2011-07-05T12:00:00Z,26.4679,-82.0631,1.731,35.37,1111122 
SCCF RECON,ioos:station:SCCF:11:1,2011-07-05T13:00:00Z,26.4679,-82.0631,1.672,35.37,1111122 
SCCF RECON,ioos:station:SCCF:11:1,2011-07-05T14:00:00Z,26.4679,-82.0631,1.63,35.39,1111122 
SCCF RECON,ioos:station:SCCF:11:1,2011-07-05T15:00:00Z,26.4679,-82.0631,1.622,35.39,1111122 
SCCF RECON,ioos:station:SCCF:11:1,2011-07-05T16:00:00Z,26.4679,-82.0631,1.71,35.38,1111122 
SCCF RECON,ioos:station:SCCF:11:1,2011-07-05T17:00:00Z,26.4679,-82.0631,1.85,34.87,1111122 
SCCF RECON,ioos:station:SCCF:11:1,2011-07-05T18:00:00Z,26.4679,-82.0631,1.98,34.82,1111122 
SCCF RECON,ioos:station:SCCF:11:1,2011-07-05T19:00:00Z,26.4679,-82.0631,2.054,34.86,1111122 
SCCF RECON,ioos:station:SCCF:11:1,2011-07-05T20:00:00Z,26.4679,-82.0631,2.091,34.91,1111122 
SCCF RECON,ioos:station:SCCF:11:1,2011-07-05T21:00:00Z,26.4679,-82.0631,2.09,34.92,1111122 
SCCF RECON,ioos:station:SCCF:11:1,2011-07-05T22:00:00Z,26.4679,-82.0631,2.041,34.88,1111122 
SCCF RECON,ioos:station:SCCF:11:1,2011-07-05T23:00:00Z,26.4679,-82.0631,1.938,35.01,1111122 
SCCF RECON,ioos:station:SCCF:11:1,2011-07-06T00:00:00Z,26.4679,-82.0631,1.799,35.13,1111122 
SCCF RECON,ioos:station:SCCF:11:1,2011-07-06T01:00:00Z,26.4679,-82.0631,1.651,35.26,1111122 
SCCF RECON,ioos:station:SCCF:11:1,2011-07-06T02:00:00Z,26.4679,-82.0631,1.546,35.3,1111122 
SCCF RECON,ioos:station:SCCF:11:1,2011-07-06T03:00:00Z,26.4679,-82.0631,1.478,35.38,1111122 
SCCF RECON,ioos:station:SCCF:11:1,2011-07-06T04:00:00Z,26.4679,-82.0631,1.442,35.42,1111122 
SCCF RECON,ioos:station:SCCF:11:1,2011-07-06T05:00:00Z,26.4679,-82.0631,1.549,35.14,1111122 
SCCF RECON,ioos:station:SCCF:11:1,2011-07-06T06:00:00Z,26.4679,-82.0631,1.7,35.23,1111122 
SCCF RECON,ioos:station:SCCF:11:1,2011-07-06T07:00:00Z,26.4679,-82.0631,1.833,35.22,1111122 
SCCF RECON,ioos:station:SCCF:11:1,2011-07-06T08:00:00Z,26.4679,-82.0631,1.94,35.16,1111122 
SCCF RECON,ioos:station:SCCF:11:1,2011-07-06T09:00:00Z,26.4679,-82.0631,2.02,35.1,1111122 
SCCF RECON,ioos:station:SCCF:11:1,2011-07-06T10:00:00Z,26.4679,-82.0631,2.05,35.07,1111122 
SCCF RECON,ioos:station:SCCF:11:1,2011-07-06T11:00:00Z,26.4679,-82.0631,1.993,35.09,1111122 
SCCF RECON,ioos:station:SCCF:11:1,2011-07-06T12:00:00Z,26.4679,-82.0631,1.87,35.12,1111122 
SCCF RECON,ioos:station:SCCF:11:1,2011-07-06T13:00:00Z,26.4679,-82.0631,1.788,35.22,1111122 
SCCF RECON,ioos:station:SCCF:11:1,2011-07-06T14:00:00Z,26.4679,-82.0631,1.7,35.25,1111122 
SCCF RECON,ioos:station:SCCF:11:1,2011-07-06T15:00:00Z,26.4679,-82.0631,1.659,35.27,1111122 
SCCF RECON,ioos:station:SCCF:11:1,2011-07-06T16:00:00Z,26.4679,-82.0631,1.638,35.3,1111122 
SCCF RECON,ioos:station:SCCF:11:1,2011-07-06T17:00:00Z,26.4679,-82.0631,1.68,35.24,1111122 
SCCF RECON,ioos:station:SCCF:11:1,2011-07-06T18:00:00Z,26.4679,-82.0631,1.801,35.17,1111122 
SCCF RECON,ioos:station:SCCF:11:1,2011-07-06T19:00:00Z,26.4679,-82.0631,1.93,34.37,1111122 
SCCF RECON,ioos:station:SCCF:11:1,2011-07-06T20:00:00Z,26.4679,-82.0631,2.01,34.22,1111122 
SCCF RECON,ioos:station:SCCF:11:1,2011-07-06T21:00:00Z,26.4679,-82.0631,1.98,34.52,1111122 
SCCF RECON,ioos:station:SCCF:11:1,2011-07-06T22:00:00Z,26.4679,-82.0631,1.98,34.39,1111122 
SCCF RECON,ioos:station:SCCF:11:1,2011-07-06T23:00:00Z,26.4679,-82.0631,1.886,34.54,1111122 
SCCF RECON,ioos:station:SCCF:11:1,2011-07-07T00:00:00Z,26.4679,-82.0631,1.791,34.8,1111122 
SCCF RECON,ioos:station:SCCF:11:1,2011-07-07T01:00:00Z,26.4679,-82.0631,1.684,34.85,1111122 
SCCF RECON,ioos:station:SCCF:11:1,2011-07-07T02:00:00Z,26.4679,-82.0631,1.6,34.97,1111122 
SCCF RECON,ioos:station:SCCF:11:1,2011-07-07T03:00:00Z,26.4679,-82.0631,1.54,35.0,1111122 
SCCF RECON,ioos:station:SCCF:11:1,2011-07-07T04:00:00Z,26.4679,-82.0631,1.52,35.05,1111122 
SCCF RECON,ioos:station:SCCF:11:1,2011-07-07T05:00:00Z,26.4679,-82.0631,1.57,34.98,1111122 
SCCF RECON,ioos:station:SCCF:11:1,2011-07-07T06:00:00Z,26.4679,-82.0631,1.7,34.76,1111122 
SCCF RECON,ioos:station:SCCF:11:1,2011-07-07T07:00:00Z,26.4679,-82.0631,1.84,34.62,1111122 
SCCF RECON,ioos:station:SCCF:11:1,2011-07-07T08:00:00Z,26.4679,-82.0631,1.92,34.53,1111122 
SCCF RECON,ioos:station:SCCF:11:1,2011-07-07T09:00:00Z,26.4679,-82.0631,2.0,34.55,1111122 
SCCF RECON,ioos:station:SCCF:11:1,2011-07-07T10:00:00Z,26.4679,-82.0631,2.07,34.54,1111122 
SCCF RECON,ioos:station:SCCF:11:1,2011-07-07T11:00:00Z,26.4679,-82.0631,2.09,34.57,1111122 
SCCF RECON,ioos:station:SCCF:11:1,2011-07-07T12:00:00Z,26.4679,-82.0631,2.03,34.59,1111122 
SCCF RECON,ioos:station:SCCF:11:1,2011-07-07T13:00:00Z,26.4679,-82.0631,1.91,34.6,1111122 
SCCF RECON,ioos:station:SCCF:11:1,2011-07-07T14:00:00Z,26.4679,-82.0631,1.78,34.7,1111122 
SCCF RECON,ioos:station:SCCF:11:1,2011-07-07T15:00:00Z,26.4679,-82.0631,1.723,34.82,1111122 
SCCF RECON,ioos:station:SCCF:11:1,2011-07-07T16:00:00Z,26.4679,-82.0631,1.59,34.79,1111122 
SCCF RECON,ioos:station:SCCF:11:1,2011-07-07T17:00:00Z,26.4679,-82.0631,1.57,34.84,1111122 
SCCF RECON,ioos:station:SCCF:11:1,2011-07-07T18:00:00Z,26.4679,-82.0631,1.64,34.79,1111122 
SCCF RECON,ioos:station:SCCF:11:1,2011-07-07T19:00:00Z,26.4679,-82.0631,1.731,34.68,1111122 
SCCF RECON,ioos:station:SCCF:11:1,2011-07-07T20:00:00Z,26.4679,-82.0631,1.828,34.66,1111122 
SCCF RECON,ioos:station:SCCF:11:1,2011-07-07T21:00:00Z,26.4679,-82.0631,1.91,34.62,1111122 
SCCF RECON,ioos:station:SCCF:11:1,2011-07-07T22:00:00Z,26.4679,-82.0631,2.034,34.64,1111122 
SCCF RECON,ioos:station:SCCF:11:1,2011-07-07T23:00:00Z,26.4679,-82.0631,2.09,34.66,1111122 
SCCF RECON,ioos:station:SCCF:11:1,2011-07-08T00:00:00Z,26.4679,-82.0631,2.072,34.89,1111122 
SCCF RECON,ioos:station:SCCF:11:1,2011-07-08T01:00:00Z,26.4679,-82.0631,2.01,34.7,1111122 
SCCF RECON,ioos:station:SCCF:11:1,2011-07-08T02:00:00Z,26.4679,-82.0631,1.937,34.65,1111122 
SCCF RECON,ioos:station:SCCF:11:1,2011-07-08T03:00:00Z,26.4679,-82.0631,1.91,34.63,1111122 
SCCF RECON,ioos:station:SCCF:11:1,2011-07-08T04:00:00Z,26.4679,-82.0631,1.84,34.72,1111122 
SCCF RECON,ioos:station:SCCF:11:1,2011-07-08T05:00:00Z,26.4679,-82.0631,1.74,34.62,1111122 
SCCF RECON,ioos:station:SCCF:11:1,2011-07-08T06:00:00Z,26.4679,-82.0631,1.81,35.81,1111122 
SCCF RECON,ioos:station:SCCF:11:1,2011-07-08T07:00:00Z,26.4679,-82.0631,1.872,35.85,1111122 
SCCF RECON,ioos:station:SCCF:11:1,2011-07-08T08:00:00Z,26.4679,-82.0631,2.02,35.98,1111122 
SCCF RECON,ioos:station:SCCF:11:1,2011-07-08T09:00:00Z,26.4679,-82.0631,2.14,36.0,1111122 
SCCF RECON,ioos:station:SCCF:11:1,2011-07-08T10:00:00Z,26.4679,-82.0631,2.19,35.98,1111122 
SCCF RECON,ioos:station:SCCF:11:1,2011-07-08T11:00:00Z,26.4679,-82.0631,2.187,36.01,1111122 
SCCF RECON,ioos:station:SCCF:11:1,2011-07-08T12:00:00Z,26.4679,-82.0631,2.16,36.01,1111122 
SCCF RECON,ioos:station:SCCF:11:1,2011-07-08T13:00:00Z,26.4679,-82.0631,2.08,35.45,1111122 
SCCF RECON,ioos:station:SCCF:11:1,2011-07-08T14:00:00Z,26.4679,-82.0631,1.99,35.41,1111122 
SCCF RECON,ioos:station:SCCF:11:1,2011-07-08T15:00:00Z,26.4679,-82.0631,1.9,35.56,1111122 
SCCF RECON,ioos:station:SCCF:11:1,2011-07-08T16:00:00Z,26.4679,-82.0631,1.766,35.35,1111122 
SCCF RECON,ioos:station:SCCF:11:1,2011-07-08T17:00:00Z,26.4679,-82.0631,1.68,35.24,1111122 
SCCF RECON,ioos:station:SCCF:11:1,2011-07-08T18:00:00Z,26.4679,-82.0631,1.6,35.37,1111122 
SCCF RECON,ioos:station:SCCF:11:1,2011-07-08T19:00:00Z,26.4679,-82.0631,1.56,35.15,1111122 
SCCF RECON,ioos:station:SCCF:11:1,2011-07-08T20:00:00Z,26.4679,-82.0631,1.629,35.35,1111122 
SCCF RECON,ioos:station:SCCF:11:1,2011-07-08T21:00:00Z,26.4679,-82.0631,1.729,35.84,1111122 
SCCF RECON,ioos:station:SCCF:11:1,2011-07-08T22:00:00Z,26.4679,-82.0631,1.818,35.9,1111122 
SCCF RECON,ioos:station:SCCF:11:1,2011-07-08T23:00:00Z,26.4679,-82.0631,1.86,35.8,1111122 
SCCF RECON,ioos:station:SCCF:11:1,2011-07-09T00:00:00Z,26.4679,-82.0631,1.89,35.9,1111122 
SCCF RECON,ioos:station:SCCF:11:1,2011-07-09T01:00:00Z,26.4679,-82.0631,1.95,35.91,1111122 
SCCF RECON,ioos:station:SCCF:11:1,2011-07-09T02:00:00Z,26.4679,-82.0631,1.87,35.76,1111122 
SCCF RECON,ioos:station:SCCF:11:1,2011-07-09T03:00:00Z,26.4679,-82.0631,1.763,35.63,1111122 
SCCF RECON,ioos:station:SCCF:11:1,2011-07-09T04:00:00Z,26.4679,-82.0631,1.77,35.48,1111122 
SCCF RECON,ioos:station:SCCF:11:1,2011-07-09T05:00:00Z,26.4679,-82.0631,1.75,35.58,1111122 
SCCF RECON,ioos:station:SCCF:11:1,2011-07-09T06:00:00Z,26.4679,-82.0631,1.73,35.56,1111122 
SCCF RECON,ioos:station:SCCF:11:1,2011-07-09T07:00:00Z,26.4679,-82.0631,1.75,35.67,1111122 
SCCF RECON,ioos:station:SCCF:11:1,2011-07-09T08:00:00Z,26.4679,-82.0631,1.82,35.69,1111122 
SCCF RECON,ioos:station:SCCF:11:1,2011-07-09T09:00:00Z,26.4679,-82.0631,1.91,35.66,1111122 
SCCF RECON,ioos:station:SCCF:11:1,2011-07-09T10:00:00Z,26.4679,-82.0631,2.02,35.13,1111122 
SCCF RECON,ioos:station:SCCF:11:1,2011-07-09T11:00:00Z,26.4679,-82.0631,2.07,35.53,1111122 
SCCF RECON,ioos:station:SCCF:11:1,2011-07-09T12:00:00Z,26.4679,-82.0631,2.099,35.57,1111122 
SCCF RECON,ioos:station:SCCF:11:1,2011-07-09T13:00:00Z,26.4679,-82.0631,2.079,35.58,1111122 
SCCF RECON,ioos:station:SCCF:11:1,2011-07-09T14:00:00Z,26.4679,-82.0631,1.966,35.41,1111122 
SCCF RECON,ioos:station:SCCF:11:1,2011-07-09T15:00:00Z,26.4679,-82.0631,1.86,35.32,1111122 
SCCF RECON,ioos:station:SCCF:11:1,2011-07-09T16:00:00Z,26.4679,-82.0631,1.749,35.29,1111122 
SCCF RECON,ioos:station:SCCF:11:1,2011-07-09T17:00:00Z,26.4679,-82.0631,1.63,35.24,1111122 
SCCF RECON,ioos:station:SCCF:11:1,2011-07-09T18:00:00Z,26.4679,-82.0631,1.5,35.24,1111122 
SCCF RECON,ioos:station:SCCF:11:1,2011-07-09T19:00:00Z,26.4679,-82.0631,1.42,35.18,1111122 
SCCF RECON,ioos:station:SCCF:11:1,2011-07-09T20:00:00Z,26.4679,-82.0631,1.37,35.12,1111122 
SCCF RECON,ioos:station:SCCF:11:1,2011-07-09T21:00:00Z,26.4679,-82.0631,1.405,35.2,1111122 
SCCF RECON,ioos:station:SCCF:11:1,2011-07-09T22:00:00Z,26.4679,-82.0631,1.506,35.29,1111122 
SCCF RECON,ioos:station:SCCF:11:1,2011-07-09T23:00:00Z,26.4679,-82.0631,1.61,35.33,1111122 
SCCF RECON,ioos:station:SCCF:11:1,2011-07-10T00:00:00Z,26.4679,-82.0631,1.71,35.34,1111122 
SCCF RECON,ioos:station:SCCF:11:1,2011-07-10T01:00:00Z,26.4679,-82.0631,1.78,35.12,1111122 
SCCF RECON,ioos:station:SCCF:11:1,2011-07-10T02:00:00Z,26.4679,-82.0631,1.83,33.92,1111122 
SCCF RECON,ioos:station:SCCF:11:1,2011-07-10T03:00:00Z,26.4679,-82.0631,1.85,34.41,1111122 
SCCF RECON,ioos:station:SCCF:11:1,2011-07-10T04:00:00Z,26.4679,-82.0631,1.81,34.76,1111122 
SCCF RECON,ioos:station:SCCF:11:1,2011-07-10T05:00:00Z,26.4679,-82.0631,1.75,35.02,1111122 
SCCF RECON,ioos:station:SCCF:11:1,2011-07-10T06:00:00Z,26.4679,-82.0631,1.7,35.15,1111122 
SCCF RECON,ioos:station:SCCF:11:1,2011-07-10T07:00:00Z,26.4679,-82.0631,1.69,35.12,1111122 
SCCF RECON,ioos:station:SCCF:11:1,2011-07-10T08:00:00Z,26.4679,-82.0631,1.75,35.21,1111122 
SCCF RECON,ioos:station:SCCF:11:1,2011-07-10T09:00:00Z,26.4679,-82.0631,1.83,34.57,1111122 
SCCF RECON,ioos:station:SCCF:11:1,2011-07-10T10:00:00Z,26.4679,-82.0631,1.921,34.94,1111122 
SCCF RECON,ioos:station:SCCF:11:1,2011-07-10T11:00:00Z,26.4679,-82.0631,1.99,33.45,1111122 
SCCF RECON,ioos:station:SCCF:11:1,2011-07-10T12:00:00Z,26.4679,-82.0631,2.049,33.74,1111122 
SCCF RECON,ioos:station:SCCF:11:1,2011-07-10T13:00:00Z,26.4679,-82.0631,2.1,33.93,1111122 
SCCF RECON,ioos:station:SCCF:11:1,2011-07-10T14:00:00Z,26.4679,-82.0631,2.088,34.24,1111122 
SCCF RECON,ioos:station:SCCF:11:1,2011-07-10T15:00:00Z,26.4679,-82.0631,2.01,34.12,1111122 
SCCF RECON,ioos:station:SCCF:11:1,2011-07-10T16:00:00Z,26.4679,-82.0631,1.872,34.4,1111122 
SCCF RECON,ioos:station:SCCF:11:1,2011-07-10T17:00:00Z,26.4679,-82.0631,1.724,34.7,1111122 
SCCF RECON,ioos:station:SCCF:11:1,2011-07-10T18:00:00Z,26.4679,-82.0631,1.579,34.85,1111122 
SCCF RECON,ioos:station:SCCF:11:1,2011-07-10T19:00:00Z,26.4679,-82.0631,1.44,34.97,1111122 
SCCF RECON,ioos:station:SCCF:11:1,2011-07-10T20:00:00Z,26.4679,-82.0631,1.34,34.99,1111122 
SCCF RECON,ioos:station:SCCF:11:1,2011-07-10T21:00:00Z,26.4679,-82.0631,1.3,35.07,1111122 
SCCF RECON,ioos:station:SCCF:11:1,2011-07-10T22:00:00Z,26.4679,-82.0631,1.34,34.88,1111122 
SCCF RECON,ioos:station:SCCF:11:1,2011-07-10T23:00:00Z,26.4679,-82.0631,1.46,34.94,1111122 
SCCF RECON,ioos:station:SCCF:11:1,2011-07-11T00:00:00Z,26.4679,-82.0631,1.59,34.89,1111122 
SCCF RECON,ioos:station:SCCF:11:1,2011-07-11T01:00:00Z,26.4679,-82.0631,1.7,34.14,1111122 
SCCF RECON,ioos:station:SCCF:11:1,2011-07-11T02:00:00Z,26.4679,-82.0631,1.78,34.74,1111122 
SCCF RECON,ioos:station:SCCF:11:1,2011-07-11T03:00:00Z,26.4679,-82.0631,1.86,33.49,1111122 
SCCF RECON,ioos:station:SCCF:11:1,2011-07-11T04:00:00Z,26.4679,-82.0631,1.87,33.35,1111122 
SCCF RECON,ioos:station:SCCF:11:1,2011-07-11T05:00:00Z,26.4679,-82.0631,1.83,33.71,1111122 
SCCF RECON,ioos:station:SCCF:11:1,2011-07-11T06:00:00Z,26.4679,-82.0631,1.79,34.28,1111122 
SCCF RECON,ioos:station:SCCF:11:1,2011-07-11T07:00:00Z,26.4679,-82.0631,1.68,34.53,1111122 
SCCF RECON,ioos:station:SCCF:11:1,2011-07-11T08:00:00Z,26.4679,-82.0631,1.65,34.69,1111122 
SCCF RECON,ioos:station:SCCF:11:1,2011-07-11T09:00:00Z,26.4679,-82.0631,1.71,34.68,1111122 
SCCF RECON,ioos:station:SCCF:11:1,2011-07-11T10:00:00Z,26.4679,-82.0631,1.81,34.08,1111122 
SCCF RECON,ioos:station:SCCF:11:1,2011-07-11T11:00:00Z,26.4679,-82.0631,1.933,33.9,1111122 
SCCF RECON,ioos:station:SCCF:11:1,2011-07-11T12:00:00Z,26.4679,-82.0631,2.03,34.13,1111122 
SCCF RECON,ioos:station:SCCF:11:1,2011-07-11T13:00:00Z,26.4679,-82.0631,2.07,34.14,1111122 
SCCF RECON,ioos:station:SCCF:11:1,2011-07-11T14:00:00Z,26.4679,-82.0631,2.11,34.2,1111122 
SCCF RECON,ioos:station:SCCF:11:1,2011-07-11T15:00:00Z,26.4679,-82.0631,2.09,34.26,1111122 
SCCF RECON,ioos:station:SCCF:11:1,2011-07-11T16:00:00Z,26.4679,-82.0631,1.989,34.04,1111122 
SCCF RECON,ioos:station:SCCF:11:1,2011-07-11T17:00:00Z,26.4679,-82.0631,1.831,34.27,1111122 
SCCF RECON,ioos:station:SCCF:11:1,2011-07-11T18:00:00Z,26.4679,-82.0631,1.691,34.46,1111122 